Change the Weather History Date:

Monday, April 22, 2013

  Actual Average Record
Temperature  
Mean Temperature 52 °F -  
Max Temperature 64 °F 56 °F 89 °F (1980)
Min Temperature 39 °F 37 °F 20 °F (1986)
Degree Days  
Heating Degree Days 14    
Growing Degree Days 2 (Base 50)    
Moisture  
Dew Point 31 °F    
Average Humidity 48    
Maximum Humidity 70    
Minimum Humidity 27    
Precipitation  
Precipitation 0.00 in - - ()
Sea Level Pressure  
Sea Level Pressure 30.16 in    
Wind  
Wind Speed 11 mph (SSE)    
Max Wind Speed 18 mph    
Max Gust Speed 22 mph    
Visibility 10 miles    
Events      
Averages and records for this station are not official NWS values.
T = Trace of Precipitation, MM = Missing Value Source: NWS Daily Summary

Daily Weather History Graph

Daily Weather History Graph

Search for Another Location

Airport or City:

Trip Planner

Search our weather history database for the weather conditions in past years. The results will help you decide how hot, cold, wet, or windy it might be!

Date:

Astronomy

Apr. 22, 2013 Rise Set
Actual Time 6:00 AM CDT 7:46 PM CDT
Civil Twilight 5:30 AM CDT 8:17 PM CDT
Nautical Twilight 4:53 AM CDT 8:54 PM CDT
Astronomical Twilight 4:13 AM CDT 9:34 PM CDT
Moon 4:30 PM CDT (4/22) 4:01 AM CDT (4/22)
Length of Visible Light 14h 46m
Length of Day
13h 45m
Waxing Gibbous, 88% of the Moon is Illuminated
Apr 22
Waxing Gibbous
Apr 25
Full
May 2
Last Quarter
May 9
New
May 17
First Quarter

Hourly Weather History & Observations

Time (CDT) Temp. Windchill Dew Point Humidity Pressure Visibility Wind Dir Wind Speed Gust Speed Precip Events Conditions
12:15 AM 41.0 °F 35.2 °F 28.4 °F 61% 30.27 in 10.0 mi SE 9.2 mph - N/A   Scattered Clouds
12:35 AM 39.2 °F 33.6 °F 28.4 °F 65% 30.27 in 10.0 mi SE 8.1 mph - N/A   Clear
12:55 AM 39.2 °F 34.2 °F 28.4 °F 65% 30.28 in 10.0 mi SSE 6.9 mph - N/A   Clear
1:15 AM 39.2 °F 33.0 °F 30.2 °F 70% 30.27 in 10.0 mi SSE 9.2 mph - N/A   Clear
1:35 AM 41.0 °F 34.7 °F 30.2 °F 65% 30.26 in 10.0 mi SSE 10.4 mph - N/A   Clear
1:55 AM 41.0 °F 34.7 °F 30.2 °F 65% 30.25 in 10.0 mi SSE 10.4 mph - N/A   Clear
2:15 AM 41.0 °F 34.3 °F 30.2 °F 65% 30.25 in 10.0 mi SSE 11.5 mph - N/A   Scattered Clouds
2:35 AM 41.0 °F 34.7 °F 30.2 °F 65% 30.25 in 10.0 mi SSE 10.4 mph - N/A   Scattered Clouds
2:55 AM 41.0 °F 33.9 °F 30.2 °F 65% 30.25 in 10.0 mi SSE 12.7 mph 18.4 mph N/A   Scattered Clouds
3:15 AM 41.0 °F 33.9 °F 30.2 °F 65% 30.24 in 10.0 mi SSE 12.7 mph - N/A   Mostly Cloudy
3:35 AM 41.0 °F 34.7 °F 30.2 °F 65% 30.24 in 10.0 mi SSE 10.4 mph - N/A   Scattered Clouds
3:55 AM 41.0 °F 34.3 °F 30.2 °F 65% 30.24 in 10.0 mi South 11.5 mph - N/A   Scattered Clouds
4:15 AM 41.0 °F 34.7 °F 30.2 °F 65% 30.24 in 10.0 mi South 10.4 mph - N/A   Mostly Cloudy
4:35 AM 41.0 °F 34.7 °F 30.2 °F 65% 30.24 in 10.0 mi SSE 10.4 mph - N/A   Overcast
4:55 AM 41.0 °F 35.8 °F 30.2 °F 65% 30.25 in 10.0 mi South 8.1 mph - N/A   Overcast
5:15 AM 41.0 °F 35.2 °F 30.2 °F 65% 30.25 in 10.0 mi SSE 9.2 mph - N/A   Overcast
5:35 AM 41.0 °F 36.4 °F 30.2 °F 65% 30.25 in 10.0 mi South 6.9 mph - N/A   Overcast
5:55 AM 41.0 °F 35.8 °F 30.2 °F 65% 30.24 in 10.0 mi SSE 8.1 mph - N/A   Overcast
6:15 AM 41.0 °F 34.3 °F 30.2 °F 65% 30.24 in 10.0 mi SSE 11.5 mph - N/A   Overcast
6:35 AM 41.0 °F 35.2 °F 30.2 °F 65% 30.24 in 10.0 mi SSE 9.2 mph - N/A   Mostly Cloudy
6:55 AM 41.0 °F 34.7 °F 30.2 °F 65% 30.24 in 10.0 mi SSE 10.4 mph - N/A   Scattered Clouds
7:15 AM 42.8 °F 36.6 °F 30.2 °F 61% 30.24 in 10.0 mi SSE 11.5 mph - N/A   Mostly Cloudy
7:35 AM 42.8 °F 37.0 °F 30.2 °F 61% 30.24 in 10.0 mi SSE 10.4 mph - N/A   Mostly Cloudy
7:55 AM 42.8 °F 36.6 °F 30.2 °F 61% 30.24 in 10.0 mi South 11.5 mph 17.3 mph N/A   Mostly Cloudy
8:15 AM 44.6 °F 39.2 °F 30.2 °F 57% 30.24 in 10.0 mi South 10.4 mph - N/A   Mostly Cloudy
8:35 AM 46.4 °F 40.7 °F 30.2 °F 53% 30.24 in 10.0 mi South 12.7 mph - N/A   Mostly Cloudy
8:55 AM 44.6 °F 38.4 °F 30.2 °F 57% 30.23 in 10.0 mi South 12.7 mph - N/A   Overcast
9:15 AM 46.4 °F 41.5 °F 30.2 °F 53% 30.22 in 10.0 mi SSE 10.4 mph - N/A   Overcast
9:35 AM 48.2 °F - 30.2 °F 50% 30.22 in 10.0 mi South 13.8 mph - N/A   Mostly Cloudy
9:55 AM 51.8 °F - 30.2 °F 44% 30.22 in 10.0 mi South 15.0 mph 18.4 mph N/A   Overcast
10:15 AM 51.8 °F - 30.2 °F 44% 30.22 in 10.0 mi South 13.8 mph - N/A   Overcast
10:35 AM 51.8 °F - 32.0 °F 47% 30.22 in 10.0 mi South 13.8 mph - N/A   Overcast
10:55 AM 51.8 °F - 32.0 °F 47% 30.22 in 10.0 mi South 13.8 mph - N/A   Mostly Cloudy
11:15 AM 53.6 °F - 30.2 °F 41% 30.22 in 10.0 mi South 12.7 mph - N/A   Mostly Cloudy
11:35 AM 53.6 °F - 30.2 °F 41% 30.22 in 10.0 mi South 15.0 mph - N/A   Scattered Clouds
11:55 AM 55.4 °F - 30.2 °F 38% 30.21 in 10.0 mi South 10.4 mph - N/A   Mostly Cloudy
12:15 PM 55.4 °F - 32.0 °F 41% 30.21 in 10.0 mi South 10.4 mph - N/A   Overcast
12:35 PM 59.0 °F - 32.0 °F 36% 30.20 in 10.0 mi South 11.5 mph - N/A   Scattered Clouds
12:55 PM 59.0 °F - 32.0 °F 36% 30.19 in 10.0 mi SSW 13.8 mph 17.3 mph N/A   Clear
1:15 PM 60.8 °F - 32.0 °F 34% 30.18 in 10.0 mi South 12.7 mph - N/A   Scattered Clouds
1:35 PM 60.8 °F - 32.0 °F 34% 30.16 in 10.0 mi South 9.2 mph - N/A   Clear
1:55 PM 60.8 °F - 30.2 °F 31% 30.15 in 10.0 mi South 11.5 mph - N/A   Scattered Clouds
2:15 PM 62.6 °F - 32.0 °F 32% 30.15 in 10.0 mi South 9.2 mph - N/A   Scattered Clouds
2:35 PM 62.6 °F - 32.0 °F 32% 30.13 in 10.0 mi South 11.5 mph - N/A   Scattered Clouds
2:55 PM 62.6 °F - 32.0 °F 32% 30.11 in 10.0 mi SE 12.7 mph 17.3 mph N/A   Scattered Clouds
3:15 PM 64.4 °F - 32.0 °F 30% 30.10 in 10.0 mi SSE 9.2 mph 18.4 mph N/A   Mostly Cloudy
3:35 PM 64.4 °F - 30.2 °F 28% 30.10 in 10.0 mi SSE 15.0 mph 19.6 mph N/A   Overcast
3:55 PM 64.4 °F - 30.2 °F 28% 30.09 in 10.0 mi South 18.4 mph 21.9 mph N/A   Mostly Cloudy
4:15 PM 62.6 °F - 32.0 °F 32% 30.09 in 10.0 mi SSE 15.0 mph - N/A   Mostly Cloudy
4:35 PM 62.6 °F - 30.2 °F 30% 30.08 in 10.0 mi SSE 13.8 mph - N/A   Overcast
4:55 PM 62.6 °F - 28.4 °F 27% 30.07 in 10.0 mi SSE 15.0 mph - N/A   Mostly Cloudy
5:15 PM 62.6 °F - 30.2 °F 30% 30.06 in 10.0 mi SSE 12.7 mph - N/A   Mostly Cloudy
5:35 PM 62.6 °F - 28.4 °F 27% 30.05 in 10.0 mi SSE 12.7 mph 21.9 mph N/A   Mostly Cloudy
5:55 PM 60.8 °F - 32.0 °F 34% 30.05 in 10.0 mi SE 13.8 mph 18.4 mph N/A   Mostly Cloudy
6:15 PM 60.8 °F - 32.0 °F 34% 30.05 in 10.0 mi SE 13.8 mph 19.6 mph N/A   Mostly Cloudy
6:35 PM 59.0 °F - 32.0 °F 36% 30.04 in 10.0 mi SE 13.8 mph - N/A   Scattered Clouds
6:55 PM 55.4 °F - 32.0 °F 41% 30.04 in 10.0 mi SE 15.0 mph - N/A   Scattered Clouds
7:15 PM 55.4 °F - 32.0 °F 41% 30.04 in 10.0 mi SE 11.5 mph - N/A   Clear
7:35 PM 53.6 °F - 32.0 °F 44% 30.04 in 10.0 mi ESE 8.1 mph - N/A   Clear
7:55 PM 53.6 °F - 30.2 °F 41% 30.04 in 10.0 mi SE 10.4 mph - N/A   Clear
8:15 PM 51.8 °F - 30.2 °F 44% 30.04 in 10.0 mi ESE 9.2 mph - N/A   Clear
8:35 PM 51.8 °F - 30.2 °F 44% 30.04 in 10.0 mi SE 10.4 mph - N/A   Clear
8:55 PM 51.8 °F - 30.2 °F 44% 30.05 in 10.0 mi SE 10.4 mph - N/A   Clear
9:15 PM 51.8 °F - 30.2 °F 44% 30.04 in 10.0 mi SE 9.2 mph - N/A   Clear
9:35 PM 51.8 °F - 30.2 °F 44% 30.05 in 10.0 mi SE 10.4 mph - N/A   Clear
9:55 PM 51.8 °F - 30.2 °F 44% 30.05 in 10.0 mi SE 10.4 mph - N/A   Clear
10:15 PM 50.0 °F - 30.2 °F 47% 30.04 in 10.0 mi SE 11.5 mph - N/A   Clear
10:35 PM 50.0 °F - 30.2 °F 47% 30.04 in 10.0 mi SE 11.5 mph - N/A   Clear
10:55 PM 50.0 °F - 30.2 °F 47% 30.04 in 10.0 mi SE 10.4 mph - N/A   Clear
11:15 PM 50.0 °F - 30.2 °F 47% 30.03 in 10.0 mi SE 10.4 mph - N/A   Scattered Clouds
11:35 PM 50.0 °F - 32.0 °F 50% 30.02 in 10.0 mi SE 10.4 mph - N/A   Scattered Clouds
11:55 PM 50.0 °F - 32.0 °F 50% 30.02 in 10.0 mi SE 10.4 mph - N/A   Overcast